Regional Weather Roundup
Issued by NWS

Home | Current Version | Previous Version | Text Only | Print | Product List | Glossary Off
Versions: 1 2 3 4 5 6 7 8 9 10 11 12 13 14 15 16 17 18 19 20 21 22 23 24 25 26 27

000
ASUS45 KBOU 300007
RWRCO

WEATHER ROUNDUP FOR COLORADO
NATIONAL WEATHER SERVICE DENVER/BOULDER CO
600 PM MDT SAT APR 29 2017

NOTE: "FAIR" INDICATES FEW OR NO CLOUDS BELOW 12000 FEET WITH NO
SIGNIFICANT WEATHER AND/OR OBSTRUCTIONS TO VISIBILITY.

COZ001>005-013-030-031-300100-
...NORTHWEST COLORADO...

CITY           SKY/WX    TMP DP  RH WIND       PRES   REMARKS
CRAIG          CLOUDY    45  21  38 NW14G24   30.08R
HAYDEN         PTSUNNY   41  19  42 SW5       30.08R
MEEKER         CLOUDY    43  24  47 N13       30.08R
MOUNT WERNER   NOT AVBL
STEAMBOAT SPGS CLOUDY    39  20  47 E10       30.08R
WALDEN           N/A     30  14  51 E9        30.13R WCI  22
$$

COZ006>008-011-300100-
...WEST CENTRAL VALLEYS...

CITY           SKY/WX    TMP DP  RH WIND       PRES   REMARKS
GRAND JUNCTION CLOUDY    53  19  26 N16G26    30.04R
MONTROSE       CLOUDY    49  26  41 N9        30.01S
EAGLE          PTSUNNY   36  23  60 SE10      30.11S
RIFLE          CLOUDY    47  21  35 E7        30.05R
DELTA          CLOUDY    53  22  30 NW15G24   30.02R
NUCLA          PTSUNNY   50  18  27 NW20G25   30.05R
$$

COZ017>023-064>068-300100-
...SOUTHWEST COLORADO...

CITY           SKY/WX    TMP DP  RH WIND       PRES   REMARKS
DURANGO        CLOUDY    41  26  55 E15G21    29.95R
CORTEZ         FAIR      47  22  37 N14G30    29.98R
PAGOSA SPRINGS CLOUDY    41  18  40 SW3       29.95R
TELLURIDE      LGT SNOW  31  22  68 NW12G18   30.04R WCI  22
WOLF CREEK PAS CLOUDY    18  14  86 N14       30.02S FOG     WCI   4
$$

COZ009-010-012-014-032>034-037-058>063-300100-
...CENTRAL COLORADO...

CITY           SKY/WX    TMP DP  RH WIND       PRES   REMARKS
ASPEN          CLOUDY    35  20  54 NW8       30.04R WCI  29
BUENA VISTA    LGT SNOW  28  25  88 W5        30.06S WCI  23
COPPER MTN     LGT SNOW  19  14  79 MISG      30.05R VSB 3/4
BERTHOUD PASS  LGT SNOW  10   0  61 NE3       30.05S VSB 3/4
COTTONWOOD PAS LGT SNOW  27  23  86 CALM      30.05R VSB 1
GUNNISON       FAIR      39  17  41 NE10G16   30.00R
KREMMLING      CLOUDY    36  28  75 S7        30.11S
LEADVILLE      LGT SNOW  22  17  81 N8        30.04R VSB 1   WCI  12
MONARCH PASS   CLOUDY    14  12  92 NE24      30.09R WCI  -5
SALIDA         CLOUDY    31  29  92 SW6       30.14S WCI  25
SUNLIGHT       LGT SNOW  21  18  86 NE5       30.11R WCI  15
WILKERSON PASS LGT SNOW N/A N/A N/A NE7       30.06R VSB 1
$$

COZ069>075-300100-
...SAN LUIS VALLEY/SANGRE DE CRISTO MOUNTAINS...

CITY           SKY/WX    TMP DP  RH WIND       PRES   REMARKS
ALAMOSA        SNOW      28  25  88 N14       30.00S VSB 1/2 WCI  17
LA VETA PASS   SNOW      18  14  86 N7        30.09S VSB 1/2 WCI   8
SAGUACHE       CLOUDY    34  16  47 N9        30.01R WCI  26
$$

COZ035-036-038>040-300100-
...NORTHERN COLORADO FRONT RANGE...

CITY           SKY/WX    TMP DP  RH WIND       PRES   REMARKS
DENVER INTL AP LGT SNOW  30  27  88 N22       30.18R VSB 1   WCI  17
DMNS CITY PARK   N/A     31  28  88 N10G20    30.20R WCI  22
AURORA         LGT SNOW  29  28  99 N16       30.18R FOG     WCI  17
FRONT RANGE AP LGT SNOW  30  30 100 N18       30.18R VSB 1   WCI  18
ERIE MUNI ARPT CLOUDY    33  28  80 N14       30.21R WCI  23
BOULDER MUN AP CLOUDY    32  28  86 NE7       30.20S WCI  26
CENTENNIAL     LGT SNOW  28  26  92 N20       30.17R VSB 1   WCI  15
BROOMFIELD     LGT SNOW  32  28  86 N12       30.20R VSB 1   WCI  23
FORT COLLINS   LGT RAIN  34  25  69 N17       30.21R WCI  23
LONGMONT       CLOUDY    37  27  68 NE10G17   30.23S
$$

COZ041-046-047-076>085-087-088-300100-
...PIKES PEAK/PALMER DIVIDE AND SOUTHERN FOOTHILLS...

CITY           SKY/WX    TMP DP  RH WIND       PRES   REMARKS
COLO. SPRINGS  CLOUDY    30  21  69 N29G36    30.09R WCI  15
A. F. ACADEMY  MIX PCPN  26  23  85 N18G29    30.10R FOG     WCI  13
SCHRIEVER AFB  PTSUNNY   28  23  79 N24G36    30.07S WCI  14
ELLICOTT       LGT SNOW N/A N/A N/A N31G47    30.04S
FALCON         LGT SNOW  27  21  79 N26G35    30.08R WCI  12
FORT CARSON    CLOUDY    31  23  73 N29G41    30.07R WCI  16
LIMON          LGT SNOW  30  29  96 N25G32    30.09S FOG     WCI  16
MONUMENT HILL  LGT SNOW  25  21  86 N17G25    30.13R WCI  11
TRINIDAD       LGT SNOW  28  24  85 N18G24    30.09R VSB 3/4 WCI  15
$$

COZ042>045-048>051-090-091-300100-
...NORTHEAST COLORADO...

CITY           SKY/WX    TMP DP  RH WIND       PRES   REMARKS
GREELEY ARPT   FAIR      36  27  69 N15       30.21R
AKRON          CLOUDY    37  24  59 N24G33    30.11S
BURLINGTON     NOT AVBL
WRAY           NOT AVBL
STERLING       CLOUDY    43  23  45 N16       30.12S
HOLYOKE        FAIR      45  23  42 NE15      30.10S
FORT MORGAN    CLOUDY    38  20  48 N22G28    30.17S
$$

COZ086-089-092>099-300100-
...SOUTHEAST COLORADO...

CITY           SKY/WX    TMP DP  RH WIND       PRES   REMARKS
PUEBLO         CLOUDY    36  26  67 N16       30.10S
LA JUNTA       LGT SNOW  34  31  88 N25G36    30.08R VSB 1   WCI  21
LAMAR          LGT SNOW  34  31  88 N17       30.01S FOG     WCI  23
SPRINGFIELD      N/A     31  30  96 N32       29.95R WCI  16
$$




USA.gov is the U.S. government's official web portal to all federal, state and local government web resources and services.